Torna al catalogo

INSAT 2C

AttivoComunicazioniGEO
NORAD 23731·PAYLOAD·🇮🇳 India

Lanciato Dec 6, 1995 da Guiana Space Centre

Loading…

TLE

AggiornatoSource: Space-Track

Epoca: Sep 14, 2026, 10:47 UTC

1 23731U 95067B   26257.44968940  .00000061  00000-0  00000-0 0  9996
2 23731  14.3576   7.5701 0001520  35.2542 344.0740  0.99779046112303

Traccia INSAT 2C in tempo reale con AllMySat

Download on the App Store